{"data":{"norad_id":62162,"intl_designator":"2024-224Z","name":"STARLINK-32526","alt_names":[],"object_type":"PAYLOAD","status":"ACTIVE","operator":null,"country":"US","launch_date":"2024-11-30","launch_site_code":"AFETR","launch_vehicle":null,"mission":null,"orbit_class":"UNKNOWN","rcs_meters":null,"size_class":null,"mass_kg":null,"dimensions":null,"purposes":["comms"],"wikipedia_slug":null,"has_3d_model":false,"image_url":null,"decayed_at":null,"tle_current":{"epoch":"2026-05-25T03:31:14.014272Z","epoch_age_seconds":65896,"freshness":"FRESH","line1":"1 62162U 24224Z   26145.14668998  .00010391  00000+0  38649-3 0  9996","line2":"2 62162  43.0002  89.7336 0001539 266.6787  93.3888 15.27588682 84120","mean_motion":15.27588682,"eccentricity":0.0001539,"inclination_deg":43.0002,"raan_deg":89.7336,"arg_perigee_deg":266.6787,"mean_anomaly_deg":93.3888,"bstar":0.00038649,"rev_number":8412,"period_min":94.266212951688,"perigee_km":481.96716659219,"apogee_km":484.0790316707,"semimajor_km":6861.1600991314,"source":"CELESTRAK","updated_at":"2026-05-25T13:38:19.599239Z"}}}